Probability
0 0 0 0 0 0 0 0 0 0 0 0 0 0 0 0 0 0 0 0 0 0 0 0 0 0 0 0 0 0 0 0 0 0 0 0 0 0 0 0 0 0 0
0 0 0 0 0 0 0 0 0 0 0 0 0 0 0 0 0 0 0 0 0 0 0 0 0 0 0 0 0 0 0 0 0 0 0 0 0 0 0 0 0 0 0
0 0 0 0 0 0 0 0 0 0 0 0 0 0 0 0 0 0 0 0 0 0 0 0 0 0 0 0 0 0 0 0 0 0 0 0 0 0 0 0 0 0 0
0 0 0 0 0 0 0 0 0 0 0 0 0 0 0 0 0 0 0 0 0 0 0 0 0 0 0 0 0 0 0 0 0 0 0 0 0 0 0 0 0 0 0
0 0 0 0 0 0 0 0 0 0 0 0 0 0 0 0 0 0 0 0 0 0 0 0 0 0 0 0 0 0 0 0 0 0 0 0 0 0 0 0 0 0 0
0 0 0 1 1 0 0 0 0 0 0 0 0 0 0 0 0 0 0 0 0 0 0 0 0 1 1 0 0 0 0 0 0 0 0 0 0 0 0 0 0 0 0
0 0 1 3 4 4 2 1 0 0 0 0 0 0 0 0 0 0 0 0 0 0 0 1 1 2 3 3 2 1 1 0 0 0 0 0 0 0 0 0 0 0 0
0 0 1 3 6 8 9 8 7 6 5 3 1 0 0 0 0 1 1 1 1 1 1 2 2 3 6 8 9 9 5 1 0 0 0 0 0 0 0 0 0 0 0
0 0 0 1 3 7 16 23 25 26 23 16 10 6 3 2 3 4 5 4 4 5 5 5 5 6 9 13 20 23 15 4 0 0 0 0 0 0 0 0 0 0 0
0 0 0 0 0 3 12 23 30 34 33 26 17 11 7 5 4 5 5 5 6 7 7 10 13 16 17 17 24 30 20 6 0 0 0 0 0 0 0 0 0 0 0
0 0 0 0 0 0 4 9 14 16 17 15 11 8 5 3 2 2 2 2 3 5 6 10 21 28 25 18 17 19 14 4 0 0 0 0 0 0 0 0 0 0 0
0 0 0 0 0 0 0 0 0 1 1 2 2 2 1 0 0 0 0 0 1 2 4 7 17 24 19 10 6 5 4 1 0 0 0 0 0 0 0 0 0 0 0
0 0 0 0 0 0 0 0 0 0 0 0 0 0 0 0 0 0 0 0 0 0 1 3 7 9 6 2 0 0 0 0 0 0 0 0 0 0 0 0 0 0 0
0 0 0 0 0 0 0 0 0 0 0 0 0 0 0 0 0 0 0 0 0 0 0 0 1 1 0 0 0 0 0 0 0 0 0 0 0 0 0 0 0 0 0
0 0 0 0 0 0 0 0 0 0 0 0 0 0 0 0 0 0 0 0 0 0 0 0 0 0 0 0 0 0 0 0 0 0 0 0 0 0 0 0 0 0 0
0 0 0 0 0 0 0 0 0 0 0 0 0 0 0 0 0 0 0 0 0 0 0 0 0 0 0 0 0 0 0 0 0 0 0 0 0 0 0 0 0 0 0
0 0 0 0 0 0 0 0 0 0 0 0 0 0 0 0 0 0 0 0 0 0 0 0 0 0 0 0 0 0 0 0 0 0 0 0 0 0 0 0 1 1 1
0 0 0 0 0 0 0 0 0 0 0 0 0 0 0 0 0 0 0 0 0 0 0 0 0 0 0 0 0 0 0 0 0 0 0 0 0 0 0 0 6 15 20
0 0 0 0 0 0 0 0 0 0 0 0 0 0 0 0 0 0 0 0 0 0 0 0 0 0 0 0 0 0 0 0 0 0 0 0 0 0 0 1 11 32 47
0 0 0 0 0 0 0 0 0 0 0 0 0 0 0 0 0 0 0 0 0 0 0 0 0 0 0 0 0 0 0 0 0 0 0 0 0 0 0 1 9 28 45
0 0 0 0 0 0 0 0 0 0 0 0 0 0 0 0 0 0 0 0 0 0 0 0 0 0 0 0 0 0 0 0 0 0 0 0 0 0 0 0 2 10 18
0 0 0 0 0 0 0 0 0 0 0 0 0 0 0 0 0 0 0 0 0 0 0 0 0 0 0 0 0 0 0 0 0 0 0 0 0 0 0 0 0 1 3
0 0 0 0 0 0 0 0 0 0 0 0 0 0 0 0 0 0 0 0 0 0 0 0 0 0 0 0 0 0 0 0 0 0 0 0 0 0 0 0 0 0 1
0 0 0 0 0 0 0 0 0 0 0 0 0 0 0 0 0 0 0 0 0 0 0 0 0 0 0 0 0 0 0 0 0 0 0 0 0 0 0 0 0 0 0
0 0 0 0 0 0 0 0 0 0 0 0 0 0 0 0 0 0 0 0 0 0 0 0 0 0 0 0 0 0 0 0 0 0 0 0 0 0 0 0 0 0 0
0 0 0 0 0 0 0 0 0 0 0 0 0 0 0 0 0 0 0 0 0 0 0 0 0 0 0 0 0 0 0 0 0 0 0 0 0 0 0 0 0 0 0
Wind_Speed
4 5 10 9 8 7 6 4 3 2 1 1 1 1 2 2 3 2 2 1 1 1 1 0 1 1 1 2 3 3 3 4 4 5 5 6 8 8 7 7 6 4 6
3 5 9 9 8 7 6 4 3 1 1 0 1 1 1 1 1 2 3 3 2 2 2 2 2 1 1 2 2 4 3 4 4 5 6 4 6 7 7 7 7 4 6
4 4 5 7 7 6 5 4 3 2 2 1 2 2 3 3 3 4 5 5 6 6 5 5 4 3 3 3 3 4 4 4 4 5 5 3 2 6 6 7 7 7 7
4 3 1 5 6 6 6 5 4 4 3 3 3 4 4 5 4 5 5 5 6 8 8 7 6 5 4 4 4 5 5 5 4 4 2 1 0 4 6 6 7 7 7
5 3 1 4 5 5 5 5 5 5 5 4 5 5 6 6 6 6 6 5 6 6 8 8 6 5 5 5 5 6 6 6 5 3 2 1 1 4 6 6 7 7 7
6 4 3 2 3 4 5 5 5 6 6 6 6 6 7 8 7 6 5 5 6 6 6 6 6 6 5 5 6 7 7 6 5 3 2 2 3 6 7 8 7 7 7
9 8 7 6 5 4 5 5 6 6 7 7 7 7 8 9 9 8 5 4 5 6 6 6 6 5 5 5 6 7 7 5 4 3 3 3 4 9 10 9 9 9 8
14 13 13 16 14 9 6 6 6 6 7 8 8 9 9 10 10 9 7 6 5 6 6 6 6 5 5 6 6 7 6 5 4 4 4 3 6 10 12 11 11 10 10
19 18 16 15 15 16 13 10 8 7 8 8 9 10 10 9 10 9 8 7 7 7 7 7 6 6 5 6 6 6 6 5 2 3 4 3 7 12 13 13 12 12 11
20 20 18 17 16 14 11 17 17 15 13 12 10 10 9 9 9 9 7 8 8 9 9 9 8 8 6 6 6 6 6 5 3 3 3 4 8 12 14 14 14 13 12
22 19 18 18 18 16 14 18 19 19 20 18 14 14 10 5 5 5 7 9 11 11 11 12 11 9 7 5 6 6 5 2 3 3 3 7 10 12 14 15 15 14 13
20 18 17 17 18 16 14 12 11 11 12 12 12 13 8 6 5 5 7 9 11 11 11 13 12 9 6 2 4 4 2 3 3 3 4 10 12 13 14 15 15 15 15
10 14 16 16 15 15 11 10 9 8 9 10 13 14 11 8 6 5 4 5 5 6 5 6 5 3 3 2 3 3 3 3 2 3 4 11 13 15 15 16 16 17 16
14 16 14 14 14 13 11 9 9 9 8 9 11 13 10 8 8 7 5 5 4 3 4 3 3 4 4 4 4 4 5 3 3 3 5 11 14 16 17 17 18 18 17
17 17 15 13 15 13 10 9 10 9 9 9 9 10 11 8 8 8 6 6 5 4 4 4 4 4 4 4 4 5 5 6 5 5 4 10 14 16 18 18 19 19 18
16 16 15 14 15 13 11 9 7 7 7 7 8 10 11 8 8 9 8 7 6 5 4 4 5 4 4 4 5 5 6 6 5 6 5 7 13 16 18 20 20 20 20
14 15 16 15 16 15 13 11 9 7 7 7 8 8 10 10 9 9 8 8 7 7 6 5 5 3 4 4 5 6 5 6 6 6 6 5 6 12 17 20 21 21 21
13 15 15 15 15 14 12 10 8 8 9 8 8 8 10 11 11 9 8 8 9 8 6 5 5 4 4 4 4 5 5 5 6 7 6 6 6 6 10 18 20 21 21
12 13 14 15 15 14 12 9 9 8 8 8 8 9 11 12 12 10 8 8 10 8 6 6 5 4 5 5 5 5 5 5 6 6 6 7 7 7 7 10 16 18 19
11 12 12 13 14 12 9 8 7 7 7 7 7 9 13 12 13 11 8 10 10 8 7 6 7 6 5 5 5 5 5 5 5 5 7 6 6 8 8 8 7 9 16
15 15 15 15 14 12 11 11 10 9 9 8 7 11 12 13 13 11 9 10 10 9 10 10 8 8 5 4 3 4 4 5 5 5 5 5 6 7 7 8 6 5 6
15 15 15 15 15 13 11 10 8 8 8 9 9 11 12 14 13 11 11 10 11 10 11 10 8 6 5 4 5 3 3 4 4 5 4 5 6 5 7 8 7 7 6
14 15 15 15 15 14 13 10 10 8 8 9 11 11 13 15 14 12 12 11 11 10 9 11 10 9 7 5 5 5 4 6 3 3 3 3 4 5 6 5 7 8 7
13 14 15 16 15 14 13 12 14 12 11 12 11 11 14 14 13 12 12 12 11 10 10 11 10 8 8 7 5 5 4 4 4 3 2 2 3 4 5 5 6 7 7
13 14 14 15 15 15 15 15 14 12 11 11 12 13 12 11 11 12 13 12 12 11 12 11 11 9 6 7 5 4 3 2 3 4 3 3 2 2 2 4 4 5 6
12 13 14 16 16 16 16 16 16 16 16 16 17 15 13 11 11 13 14 13 13 12 12 12 10 11 8 7 6 4 3 3 4 5 5 4 3 2 2 1 2 3 4
Wind_Direction
224 211 204 170 172 171 170 173 171 157 110 77 72 81 82 80 65 50 50 77 77 47 8 81 123 117 119 131 134 124 112 100 94 96 108 129 133 133 134 133 124 106 109
171 178 194 172 176 178 179 183 179 179 171 32 7 357 339 319 306 309 303 300 286 272 267 264 248 228 212 189 165 153 144 122 98 87 79 95 125 135 137 140 136 137 127
119 155 184 173 180 183 188 193 195 206 223 265 313 321 317 303 288 290 285 282 275 265 259 254 249 245 239 221 203 191 175 156 133 111 92 82 122 142 139 143 151 148 143
107 120 132 182 189 195 200 206 211 219 232 248 271 291 296 297 292 293 288 291 285 270 260 257 254 248 242 232 222 217 200 181 165 141 120 134 206 163 154 152 153 153 154
85 83 98 199 206 215 220 224 228 231 238 247 257 273 282 283 290 295 298 305 311 291 266 255 252 248 241 230 229 230 218 196 182 162 165 195 252 214 176 166 158 153 155
53 37 11 254 243 245 245 245 245 245 247 251 258 268 279 281 286 294 299 311 318 314 289 264 254 253 248 235 230 234 231 210 183 173 202 234 233 231 198 175 164 157 155
31 20 8 344 319 291 270 262 257 256 259 263 265 268 279 285 286 287 277 284 300 305 303 288 275 271 264 255 248 245 242 225 176 184 212 241 236 226 206 185 177 169 162
30 22 14 3 356 341 315 290 275 268 267 270 273 272 274 280 288 289 273 260 272 285 290 292 288 288 287 279 273 271 265 251 191 193 213 237 244 230 212 193 186 180 173
32 26 18 10 4 357 348 336 316 300 290 284 282 283 284 282 286 289 290 273 263 270 277 278 278 278 283 289 290 289 286 275 207 199 214 227 244 235 220 203 195 191 185
29 25 17 13 11 6 4 4 1 355 347 333 317 306 297 286 284 286 289 284 274 269 268 268 267 267 271 280 288 292 289 288 229 213 220 237 248 242 229 213 202 199 194
26 23 18 16 14 10 14 15 13 11 7 3 352 340 325 305 290 284 277 275 274 272 268 264 261 260 263 272 281 289 298 271 242 224 221 241 250 252 241 225 210 204 201
20 20 20 18 15 14 14 12 9 10 6 7 3 357 347 335 319 305 289 284 281 280 278 269 262 261 262 263 274 285 279 271 255 238 237 246 252 254 250 234 219 210 206
16 22 21 19 17 18 13 12 10 5 4 3 4 2 357 353 346 337 322 311 305 298 289 281 274 256 251 247 254 255 254 259 248 243 245 252 256 256 255 243 228 216 210
23 19 16 18 17 16 14 12 13 8 5 3 359 2 2 357 353 344 334 321 311 300 288 276 261 251 249 247 247 251 252 247 247 244 242 248 255 258 258 250 235 223 215
20 13 8 11 13 9 11 9 13 7 4 359 359 1 1 357 350 342 334 328 317 308 293 281 267 258 251 250 244 241 247 247 248 245 248 246 247 251 254 255 242 231 222
14 9 2 8 8 3 5 2 2 360 356 357 359 357 358 355 348 342 335 329 323 315 299 280 268 261 256 247 247 238 239 243 246 246 243 246 244 246 249 252 246 234 228
8 5 3 4 3 360 358 356 355 351 351 354 353 351 355 353 347 341 332 327 323 318 306 289 273 256 253 247 247 243 237 237 241 245 245 240 241 241 243 246 246 235 230
8 4 2 0 358 355 352 348 347 348 349 349 347 347 352 350 347 341 332 325 321 317 308 294 275 261 247 238 242 244 235 234 238 242 243 240 236 237 238 240 242 234 228
6 0 358 356 354 350 346 342 338 339 343 342 343 346 346 346 346 340 328 323 323 317 308 298 287 256 253 245 240 242 237 234 236 241 240 240 236 234 232 234 235 232 224
3 359 355 354 352 346 343 339 335 337 338 336 338 342 342 341 341 337 330 329 326 318 310 302 290 272 250 247 251 247 240 238 237 237 241 242 236 233 230 228 227 230 225
3 360 356 354 352 352 350 346 340 340 339 336 337 339 338 338 336 333 335 332 329 320 309 301 291 280 261 236 239 261 263 245 240 240 238 239 237 232 225 223 218 213 218
357 355 353 352 349 351 348 340 334 332 332 334 335 334 336 336 333 333 335 333 330 324 317 310 297 281 268 220 207 223 267 294 264 241 238 237 238 231 227 223 216 211 206
355 353 349 346 346 348 347 345 341 337 338 341 338 335 335 332 330 328 331 332 329 327 323 317 305 285 275 259 219 197 200 227 263 278 248 249 248 236 231 224 219 215 210
351 348 346 345 345 348 349 349 346 348 343 338 333 328 326 326 325 329 332 332 329 326 325 322 318 298 278 269 252 232 218 183 189 258 279 265 264 247 238 230 223 218 210
350 348 345 344 347 350 351 349 347 347 342 335 334 330 328 325 326 332 332 332 330 326 324 321 321 312 291 273 260 242 229 219 192 192 242 269 281 271 257 238 226 216 207
351 349 348 346 348 351 351 350 348 347 343 339 339 335 334 331 332 334 335 333 328 325 323 321 321 315 309 291 273 251 225 200 192 184 201 221 241 271 286 270 229 211 197